EW9273 Weather Reports


time (UTC)temp
F
wind
direction
speed
knots
gust
knots
rain 1hr
in
rain 24hr
in
rain mn
in
humidity
%
barometer
mb
20260510130559 71 214 2.6 6.1 0.00 0.00 0.00 83 1009.3
20260510130059 70 198 1.7 5.2 0.00 0.00 0.00 83 1009.3
20260510125557 70 190 1.7 4.3 0.00 0.01 0.00 83 1009.2
20260510125056 70 219 1.7 3.5 0.00 0.01 0.00 83 1009.1
20260510124600 70 233 1.7 3.5 0.00 0.01 0.00 83 1009.1
20260510124056 69 209 1.7 3.5 0.00 0.01 0.00 83 1009.1
20260510123554 69 224 0.9 3.5 0.00 0.01 0.00 83 1009.1
20260510123054 69 224 0.9 3.5 0.00 0.01 0.00 83 1009.1
20260510122552 68 224 0.0 0.9 0.00 0.01 0.00 83 1009.0
20260510122052 68 224 0.0 0.9 0.00 0.01 0.00 83 1009.0
20260510121551 68 224 0.0 1.7 0.00 0.01 0.00 82 1008.9
20260510121052 68 224 0.0 1.7 0.00 0.01 0.00 83 1008.8
20260510120550 68 222 0.0 1.7 0.00 0.01 0.00 82 1008.8
20260510120048 68 198 0.0 0.9 0.00 0.01 0.00 82 1008.7
20260510115548 68 198 0.0 0.9 0.00 0.01 0.00 82 1008.7
20260510115046 68 198 0.0 0.0 0.00 0.01 0.00 81 1008.7
20260510114556 68 198 0.0 0.9 0.00 0.01 0.00 81 1008.8
20260510114046 68 198 0.0 0.9 0.00 0.01 0.00 81 1008.7
20260510113545 68 198 0.0 1.7 0.00 0.01 0.00 81 1008.7
20260510113051 68 198 0.0 1.7 0.00 0.01 0.00 81 1008.7
20260510112545 68 198 0.0 2.6 0.00 0.01 0.00 81 1008.7
20260510112044 68 198 0.9 2.6 0.00 0.01 0.00 80 1008.6
20260510111544 68 198 0.9 2.6 0.00 0.01 0.00 80 1008.5
20260510111045 69 190 0.9 2.6 0.00 0.01 0.00 80 1008.6
20260510110543 69 174 0.0 0.0 0.00 0.01 0.00 79 1008.7
20260510110050 69 174 0.0 2.6 0.00 0.01 0.00 79 1008.8
20260510105542 69 174 0.0 2.6 0.00 0.01 0.00 79 1008.7
20260510105041 69 171 0.0 2.6 0.00 0.01 0.00 79 1008.7
20260510104540 69 174 0.9 3.5 0.00 0.01 0.00 79 1008.8
20260510104040 69 204 1.7 3.5 0.00 0.01 0.00 79 1008.8
20260510103540 69 210 0.9 2.6 0.00 0.01 0.00 78 1008.9
20260510103045 69 202 0.0 1.7 0.00 0.01 0.00 78 1008.9
20260510102539 69 214 0.0 1.7 0.00 0.01 0.00 78 1008.9
20260510102038 70 213 0.0 1.7 0.00 0.01 0.00 78 1008.9
20260510101545 70 108 0.0 1.7 0.00 0.01 0.00 78 1009.0
20260510101038 70 108 0.0 1.7 0.00 0.01 0.00 77 1009.0
20260510100538 70 108 0.0 0.9 0.00 0.01 0.00 77 1009.1
20260510100047 70 89 0.0 0.9 0.00 0.01 0.00 77 1009.1
20260510095537 70 89 0.0 1.7 0.00 0.01 0.00 77 1009.1
20260510095040 70 89 0.0 1.7 0.00 0.01 0.00 77 1009.0
20260510094540 70 207 0.0 0.9 0.00 0.01 0.00 76 1008.9
20260510094033 70 207 0.0 0.0 0.00 0.01 0.00 76 1008.8
20260510093533 70 207 0.0 1.7 0.00 0.01 0.00 76 1008.7
20260510093037 70 207 0.0 1.7 0.00 0.01 0.00 76 1008.7
20260510092532 71 207 0.0 1.7 0.00 0.01 0.00 76 1008.6
20260510092031 71 207 0.0 1.7 0.00 0.01 0.00 75 1008.5
20260510091532 71 207 0.0 1.7 0.00 0.01 0.00 75 1008.7
20260510091031 71 207 0.0 1.7 0.00 0.01 0.00 75 1008.7
20260510090531 71 207 0.0 2.6 0.00 0.01 0.00 75 1008.6
20260510090031 71 160 0.9 2.6 0.00 0.01 0.00 75 1008.6
20260510085532 71 173 0.9 2.6 0.00 0.01 0.00 75 1008.6
20260510085029 71 174 0.0 0.9 0.00 0.01 0.00 75 1008.6
20260510084533 71 174 0.0 1.7 0.00 0.01 0.00 75 1008.6
20260510084028 71 174 0.0 1.7 0.00 0.01 0.00 75 1008.6
20260510083528 71 174 0.0 0.9 0.00 0.01 0.00 74 1008.5
20260510083027 71 174 0.0 0.9 0.00 0.01 0.00 74 1008.7
20260510082526 72 174 0.0 0.9 0.00 0.01 0.00 74 1008.6
20260510082025 72 174 0.0 0.9 0.00 0.01 0.00 74 1008.6
20260510081536 72 174 0.0 0.0 0.00 0.01 0.00 74 1008.5
20260510081025 72 174 0.0 1.7 0.00 0.01 0.00 73 1008.5
20260510080523 72 174 0.0 1.7 0.00 0.01 0.00 73 1008.4
20260510080038 72 174 0.0 1.7 0.00 0.01 0.00 73 1008.4
20260510075523 72 174 0.0 1.7 0.00 0.01 0.00 73 1008.4
20260510075022 73 169 0.0 1.7 0.00 0.01 0.00 72 1008.4
20260510074524 73 169 0.0 1.7 0.00 0.01 0.00 72 1008.4
20260510074019 73 169 0.0 2.6 0.00 0.01 0.00 72 1008.4
20260510073519 73 169 0.9 3.5 0.00 0.01 0.00 72 1008.4
20260510073033 73 169 0.9 2.6 0.00 0.01 0.00 71 1008.4
20260510072519 74 203 0.9 3.5 0.00 0.01 0.00 71 1008.3
20260510072018 74 199 0.0 3.5 0.00 0.01 0.00 71 1008.3
20260510071519 74 205 0.9 3.5 0.00 0.01 0.00 71 1008.3
20260510071017 74 160 1.7 3.5 0.00 0.01 0.00 71 1008.3
20260510070516 74 183 0.9 4.3 0.00 0.01 0.00 71 1008.3
20260510070016 74 157 1.7 5.2 0.00 0.01 0.00 71 1008.4
20260510065617 74 163 0.9 5.2 0.00 0.01 0.00 71 1008.3
20260510065017 74 180 0.9 4.3 0.00 0.01 0.00 71 1008.4
20260510064514 74 202 0.9 4.3 0.00 0.01 0.00 71 1008.3
20260510064015 75 165 1.7 4.3 0.00 0.01 0.00 71 1008.3
20260510063513 75 152 1.7 5.2 0.00 0.01 0.00 71 1008.3
20260510063016 75 200 0.9 6.1 0.00 0.01 0.00 71 1008.4
20260510062512 75 162 0.9 6.1 0.00 0.01 0.00 71 1008.4
20260510062011 75 140 2.6 7.0 0.00 0.01 0.00 71 1008.3
20260510061511 75 188 2.6 7.0 0.00 0.01 0.00 71 1008.4
20260510061010 75 164 0.9 5.2 0.00 0.01 0.00 71 1008.4
20260510060511 75 139 2.6 5.2 0.00 0.01 0.00 71 1008.4
20260510060022 76 150 0.0 4.3 0.00 0.01 0.00 71 1008.4
20260510055517 76 159 1.7 4.3 0.00 0.01 0.00 71 1008.5
20260510055010 76 195 0.0 0.9 0.00 0.01 0.00 71 1008.4
20260510054510 76 195 0.0 1.7 0.00 0.01 0.00 70 1008.4
20260510054007 76 195 0.0 2.6 0.00 0.01 0.00 70 1008.4
20260510053507 76 150 0.0 1.7 0.00 0.01 0.00 70 1008.4
20260510053005 76 113 0.0 2.6 0.00 0.01 0.00 70 1008.3
20260510052505 76 161 0.0 2.6 0.00 0.01 0.00 70 1008.2
20260510052004 77 161 0.0 6.1 0.00 0.01 0.00 70 1008.2
20260510051504 77 161 0.9 6.1 0.00 0.01 0.00 69 1008.1
20260510051002 77 170 2.6 5.2 0.00 0.01 0.00 69 1008.1
20260510050502 77 177 2.6 5.2 0.00 0.01 0.00 69 1008.0
20260510050001 77 163 1.7 6.1 0.00 0.01 0.00 69 1008.0
20260510045600 78 167 2.6 6.1 0.00 0.01 0.01 69 1007.9
20260510045100 78 175 2.6 7.0 0.00 0.01 0.01 68 1007.9
20260510044600 78 156 1.7 7.0 0.00 0.01 0.01 68 1007.8
20260510044102 78 204 1.7 7.0 0.00 0.01 0.01 68 1007.8
20260510043559 78 174 1.7 7.0 0.00 0.01 0.01 67 1007.8
20260510043101 79 157 2.6 7.0 0.00 0.01 0.01 67 1007.9
20260510042600 79 140 0.9 5.2 0.00 0.01 0.01 67 1007.9
20260510042101 79 167 1.7 5.2 0.00 0.01 0.01 67 1007.9
20260510041609 79 175 0.9 5.2 0.00 0.01 0.01 67 1007.9
20260510041059 79 148 0.9 3.5 0.00 0.01 0.01 67 1007.9
20260510040559 79 94 0.9 3.5 0.00 0.01 0.01 67 1007.8
20260510040113 79 58 0.0 1.7 0.00 0.01 0.01 67 1007.9
20260510035558 79 171 0.0 3.5 0.00 0.01 0.01 67 1007.8
20260510035100 79 155 0.9 3.5 0.00 0.01 0.01 67 1007.7
20260510034558 80 198 0.9 3.5 0.00 0.01 0.01 66 1007.6
20260510034058 80 64 0.0 0.9 0.00 0.01 0.01 66 1007.4
20260510033557 80 64 0.0 0.9 0.00 0.01 0.01 66 1007.3
20260510033104 80 149 0.0 1.7 0.00 0.01 0.01 66 1007.3
20260510032600 80 149 0.0 1.7 0.00 0.01 0.01 66 1007.2
20260510032057 80 145 0.0 1.7 0.00 0.01 0.01 66 1007.2
20260510031603 80 175 0.0 1.7 0.00 0.01 0.01 65 1007.1
20260510031057 81 175 0.0 1.7 0.00 0.01 0.01 65 1007.2
20260510030558 81 122 0.0 2.6 0.00 0.01 0.01 66 1007.1
20260510025556 81 152 0.0 1.7 0.00 0.01 0.01 66 1007.0
20260510025058 81 90 0.0 1.7 0.00 0.01 0.01 66 1006.9
20260510024557 81 69 0.0 1.7 0.00 0.01 0.01 66 1006.9
20260510024055 81 69 0.0 1.7 0.00 0.01 0.01 65 1006.9
20260510023555 81 69 0.0 0.9 0.00 0.01 0.01 65 1006.8
20260510023055 81 69 0.0 0.9 0.00 0.01 0.01 65 1006.7
20260510022559 81 69 0.0 1.7 0.00 0.01 0.01 64 1006.7
20260510022055 81 69 0.0 1.7 0.00 0.01 0.01 64 1006.7
20260510021645 82 69 0.0 1.7 0.00 0.01 0.01 64 1006.7
20260510021055 82 69 0.0 1.7 0.00 0.01 0.01 63 1006.6
20260510020555 82 69 0.0 1.7 0.00 0.01 0.01 62 1006.6
20260510020100 82 69 0.0 1.7 0.00 0.01 0.01 61 1006.6
20260510015556 83 39 0.0 1.7 0.00 0.01 0.01 61 1006.4
20260510015056 83 80 0.0 2.6 0.00 0.01 0.01 60 1006.4
20260510014559 83 81 0.9 2.6 0.00 0.01 0.01 59 1006.3
20260510014055 84 154 0.0 1.7 0.00 0.01 0.01 58 1006.2
20260510013555 84 154 0.0 1.7 0.00 0.01 0.01 57 1006.1
20260510013102 84 154 0.0 1.7 0.00 0.01 0.01 56 1006.1
20260510012553 84 154 0.0 1.7 0.00 0.01 0.01 55 1006.0
20260510012054 85 190 0.0 1.7 0.00 0.01 0.01 54 1005.9
20260510011553 85 204 0.0 5.2 0.00 0.01 0.01 54 1005.9
20260510011054 85 109 0.9 4.3 0.00 0.01 0.01 53 1005.9
20260510010553 86 115 0.9 2.6 0.00 0.01 0.01 52 1005.8
20260510010058 86 44 0.9 2.6 0.00 0.01 0.01 52 1005.8
20260510005554 86 155 0.9 3.5 0.00 0.01 0.01 52 1005.7
20260510005052 86 117 0.0 4.3 0.00 0.01 0.01 51 1005.7
20260510004552 87 135 0.9 7.8 0.00 0.01 0.01 49 1005.7
20260510004052 87 157 2.6 7.8 0.00 0.01 0.01 50 1005.6
20260510003553 87 124 0.9 7.0 0.00 0.01 0.01 51 1005.6
20260510003052 88 186 1.7 8.7 0.00 0.01 0.01 50 1005.5
20260510002555 88 159 2.6 8.7 0.00 0.01 0.01 49 1005.4
20260510002051 88 152 1.7 6.1 0.00 0.01 0.01 49 1005.3
20260510001551 89 158 2.6 6.1 0.00 0.01 0.01 48 1005.3
20260510001051 89 69 0.9 5.2 0.00 0.01 0.01 47 1005.2
20260510000550 89 184 0.9 9.6 0.00 0.01 0.01 49 1005.1
20260510000051 89 225 0.9 9.6 0.00 0.01 0.01 49 1005.1
20260509235652 89 112 1.7 7.0 0.00 0.01 0.01 48 1005.0
20260509235049 90 169 2.6 7.0 0.00 0.01 0.01 48 1004.9
20260509234549 90 120 2.6 7.0 0.00 0.01 0.01 47 1004.8
20260509234049 90 163 3.5 9.6 0.00 0.01 0.01 48 1004.6
20260509233550 90 190 4.3 10.4 0.00 0.01 0.01 48 1004.7
20260509233048 90 184 4.3 10.4 0.00 0.01 0.01 48 1004.7
20260509232548 90 250 2.6 8.7 0.00 0.01 0.01 49 1004.6
20260509232048 90 149 5.2 8.7 0.00 0.01 0.01 48 1004.8
20260509231548 90 163 1.7 6.1 0.00 0.01 0.01 48 1005.0
20260509231045 90 157 0.9 6.1 0.00 0.01 0.01 49 1005.2
20260509230545 90 71 1.7 5.2 0.00 0.01 0.01 49 1005.2
20260509230048 90 165 1.7 5.2 0.00 0.01 0.01 49 1005.2
20260509225546 90 132 1.7 7.8 0.00 0.01 0.01 49 1005.2
20260509225043 90 118 2.6 7.8 0.00 0.01 0.01 49 1005.2
20260509224543 91 148 3.5 8.7 0.00 0.01 0.01 49 1005.3
20260509224044 90 159 2.6 8.7 0.00 0.01 0.01 49 1005.2
20260509223544 91 156 3.5 7.0 0.00 0.01 0.01 49 1005.2
20260509223044 91 222 2.6 7.0 0.00 0.01 0.01 49 1005.1
20260509222545 90 204 0.9 7.8 0.00 0.01 0.01 49 1005.0
20260509222043 90 167 3.5 7.8 0.00 0.01 0.01 49 1005.0
20260509221543 91 160 3.5 8.7 0.00 0.01 0.01 49 1005.1
20260509221042 91 249 2.6 7.8 0.00 0.01 0.01 48 1005.0
20260509220542 91 236 0.9 7.0 0.00 0.01 0.01 48 1005.0
20260509220043 92 196 3.5 8.7 0.00 0.01 0.01 47 1005.1
20260509215542 92 237 2.6 9.6 0.00 0.01 0.01 48 1005.2
20260509215042 91 240 1.7 5.2 0.00 0.01 0.01 49 1005.2
20260509214542 91 142 0.9 7.0 0.00 0.01 0.01 49 1005.2
20260509214040 91 132 2.6 7.0 0.00 0.01 0.01 49 1005.3
20260509213541 91 181 1.7 5.2 0.00 0.01 0.01 50 1005.2
20260509213043 90 102 1.7 7.0 0.00 0.01 0.01 51 1005.4
20260509212539 91 186 2.6 7.8 0.00 0.01 0.01 49 1005.4
20260509212039 91 148 0.9 7.8 0.00 0.01 0.01 48 1005.4
20260509211539 91 88 2.6 8.7 0.00 0.01 0.01 49 1005.5
20260509211038 91 165 3.5 8.7 0.00 0.01 0.01 49 1005.5
20260509210540 92 259 2.6 7.0 0.00 0.01 0.01 48 1005.6
20260509210044 92 255 1.7 7.8 0.00 0.01 0.01 48 1005.7
20260509205537 91 277 3.5 9.6 0.00 0.01 0.01 49 1005.7
20260509205036 91 213 4.3 9.6 0.00 0.01 0.01 49 1005.7
20260509204535 91 182 2.6 7.0 0.00 0.01 0.01 48 1005.8
20260509204034 90 275 2.6 7.8 0.00 0.01 0.01 49 1005.9
20260509203533 91 148 2.6 8.7 0.00 0.01 0.01 49 1006.1
20260509203034 90 184 2.6 8.7 0.00 0.01 0.01 48 1006.1
20260509202537 92 208 2.6 7.0 0.00 0.01 0.01 47 1006.2
20260509202035 91 211 2.6 8.7 0.00 0.01 0.01 45 1006.3
20260509201533 90 226 2.6 8.7 0.00 0.01 0.01 47 1006.3
20260509201029 90 230 3.5 7.8 0.00 0.01 0.01 49 1006.4
20260509200532 89 207 0.9 7.0 0.00 0.01 0.01 51 1006.5
20260509200028 90 153 2.6 7.0 0.00 0.01 0.01 52 1006.6
20260509195529 91 178 1.7 9.6 0.00 0.01 0.01 49 1006.7
20260509195025 91 233 4.3 9.6 0.00 0.01 0.01 48 1006.8
20260509194537 92 264 2.6 6.1 0.00 0.01 0.01 48 1006.9
20260509194026 90 192 0.9 7.8 0.00 0.01 0.01 53 1007.0
20260509193527 90 144 3.5 7.8 0.00 0.01 0.01 52 1007.2
20260509193025 91 225 4.3 8.7 0.00 0.01 0.01 51 1007.3
20260509192524 89 154 0.9 8.7 0.00 0.01 0.01 54 1007.3
20260509192026 88 318 3.5 7.8 0.00 0.01 0.01 55 1007.4
20260509191525 88 99 1.7 7.8 0.00 0.01 0.01 56 1007.4
20260509191025 87 148 2.6 5.2 0.00 0.01 0.01 55 1007.4
20260509190525 88 215 2.6 7.8 0.00 0.01 0.01 54 1007.5
20260509190026 89 274 3.5 7.8 0.00 0.01 0.01 54 1007.5
20260509185524 89 305 0.9 9.6 0.00 0.01 0.01 54 1007.5
20260509185022 90 262 3.5 10.4 0.00 0.01 0.01 53 1007.5
20260509184527 89 259 5.2 10.4 0.00 0.01 0.01 54 1007.6
20260509184020 89 302 0.9 7.8 0.00 0.01 0.01 56 1007.6
20260509183520 88 154 1.7 7.8 0.00 0.01 0.01 55 1007.7
20260509183020 88 219 2.6 7.8 0.00 0.01 0.01 55 1007.8
20260509182518 88 258 3.5 7.8 0.00 0.01 0.01 57 1007.9
20260509182018 86 130 2.6 8.7 0.00 0.01 0.01 58 1007.9
20260509181518 87 235 4.3 8.7 0.00 0.01 0.01 58 1007.9
20260509181018 86 265 6.1 8.7 0.00 0.01 0.01 61 1008.0
20260509180518 87 155 1.7 6.1 0.00 0.01 0.01 60 1008.1
20260509180016 85 153 2.6 7.0 0.00 0.01 0.01 62 1008.2
20260509175515 85 150 0.9 7.8 0.00 0.01 0.01 61 1008.2
20260509175015 85 263 2.6 7.8 0.00 0.01 0.01 62 1008.1
20260509174515 86 144 4.3 8.7 0.00 0.01 0.01 61 1008.3
20260509174014 86 233 0.9 6.1 0.00 0.01 0.01 65 1008.3
20260509173512 85 281 1.7 9.6 0.00 0.01 0.01 64 1008.4
20260509173015 85 229 3.5 9.6 0.00 0.01 0.01 65 1008.5
20260509172513 84 214 3.5 8.7 0.00 0.01 0.01 67 1008.4
20260509172010 84 220 0.9 8.7 0.00 0.01 0.01 68 1008.5
20260509171509 84 273 3.5 7.8 0.00 0.01 0.01 69 1008.5
20260509171008 83 242 2.6 9.6 0.00 0.01 0.01 69 1008.6
20260509170507 83 242 2.6 9.6 0.00 0.01 0.01 70 1008.7
20260509170007 84 243 4.3 8.7 0.00 0.01 0.01 70 1008.7
20260509165504 83 252 2.6 7.8 0.00 0.01 0.01 72 1008.7
20260509165007 82 327 3.5 7.8 0.00 0.01 0.01 72 1008.7
20260509164502 82 296 4.3 7.8 0.00 0.01 0.01 72 1008.7
20260509164001 82 220 4.3 10.4 0.00 0.01 0.01 72 1008.7
20260509163559 81 185 3.5 10.4 0.00 0.01 0.01 73 1008.6
20260509163104 81 235 4.3 10.4 0.00 0.01 0.01 72 1008.5
20260509162558 81 251 4.3 10.4 0.00 0.01 0.01 71 1008.4
20260509162057 81 243 5.2 10.4 0.00 0.01 0.01 71 1008.4
20260509161603 80 258 1.7 7.8 0.00 0.01 0.01 74 1008.3
20260509161053 80 259 4.3 7.8 0.00 0.01 0.01 74 1008.5
20260509160552 79 227 3.5 9.6 0.00 0.01 0.01 77 1008.4
20260509160051 79 207 3.5 10.4 0.00 0.01 0.01 78 1008.5
20260509155549 79 222 2.6 10.4 0.00 0.01 0.01 79 1008.6
20260509155048 78 225 3.5 7.0 0.00 0.01 0.01 80 1008.6
20260509154550 78 223 2.6 7.8 0.00 0.01 0.01 84 1008.9
20260509154045 77 255 3.5 7.8 0.00 0.01 0.01 87 1008.9
20260509153543 75 267 1.7 7.0 0.00 0.01 0.01 91 1008.8
20260509153055 74 261 2.6 7.0 0.00 0.01 0.01 94 1008.9
20260509152542 72 268 3.5 5.2 0.00 0.01 0.01 95 1009.0
20260509152041 72 262 1.7 7.0 0.00 0.01 0.01 96 1009.1
20260509151541 72 261 3.5 7.0 0.00 0.01 0.01 95 1009.3
20260509151039 72 220 0.0 2.6 0.00 0.01 0.01 96 1009.4
20260509150539 72 241 0.0 2.6 0.00 0.01 0.01 95 1009.5
20260509150039 73 121 0.0 4.3 0.00 0.01 0.01 96 1009.3
20260509145540 73 138 1.7 6.1 0.00 0.01 0.01 96 1009.2
20260509145037 73 149 2.6 6.1 0.00 0.01 0.01 95 1009.3
20260509144541 73 163 0.9 6.1 0.00 0.01 0.01 96 1009.3
20260509144034 73 163 2.6 6.1 0.00 0.01 0.01 95 1009.4
20260509143537 73 152 0.0 2.6 0.00 0.01 0.01 95 1009.4
20260509143035 73 152 0.0 2.6 0.00 0.01 0.01 95 1009.5
20260509142533 73 145 0.9 2.6 0.00 0.01 0.01 95 1009.4
20260509142033 73 121 0.0 1.7 0.00 0.01 0.01 95 1009.4
20260509141539 73 225 0.0 2.6 0.00 0.01 0.01 95 1009.6
20260509141032 72 159 0.9 4.3 0.00 0.01 0.01 95 1009.4
20260509140532 72 156 0.0 4.3 0.00 0.01 0.01 95 1009.3
20260509140036 72 164 0.0 1.7 0.00 0.01 0.01 95 1009.4
20260509135530 72 164 0.0 2.6 0.00 0.01 0.01 95 1009.2
20260509135030 72 164 0.0 2.6 0.00 0.01 0.01 95 1008.9
20260509134530 72 342 0.0 0.0 0.00 0.01 0.01 95 1008.6
20260509134029 72 342 0.0 1.7 0.00 0.01 0.01 95 1008.0
20260509133529 72 342 0.0 1.7 0.00 0.01 0.01 95 1007.8
20260509133029 72 342 0.0 1.7 0.00 0.01 0.01 94 1007.7
20260509132531 72 277 0.0 2.6 0.01 0.01 0.01 94 1007.8
20260509132028 72 198 0.0 3.5 0.01 0.01 0.01 94 1007.8
20260509131528 72 88 0.0 3.5 0.01 0.01 0.01 94 1008.0
20260509131031 72 51 0.9 4.3 0.01 0.01 0.01 94 1008.4